Regional Weather Roundup
Issued by NWS

Home | Current Version | Previous Version | Graphics & Text | Print | Product List | Glossary On
Versions: 1 2 3 4 5 6 7 8 9 10 11 12 13 14 15 16 17 18 19 20 21 22 23 24 25 26 27 28 29 30 31 32 33 34 35 36 37 38 39 40 41 42 43 44 45 46 47 48 49 50
000
ASUS45 KSLC 221010
RWRUT

UTAH REGIONAL WEATHER ROUNDUP
NATIONAL WEATHER SERVICE SALT LAKE CITY UT
400 AM MDT MON SEP 22 2014

UTZ001>011-023>025-221100-

NORTHERN UTAH

CITY           SKY/WX    TMP DP  RH WIND       PRES   REMARKS
HILL AFB       CLOUDY    58  53  83 E12       30.16S
LOGAN          FOG       54  54 100 W5        30.16R VSB 1/2
OGDEN          CLOUDY    58  56  93 S6        30.14S
PROVO AIRPORT  CLOUDY    57  52  82 E7        30.17F
SALT LAKE CITY CLOUDY    63  57  81 SE6       30.13S
VERNAL         CLOUDY    51  49  92 N3        30.23S
WENDOVER       CLEAR     55  52  88 E5        30.15S
HEBER CITY     CLOUDY    52  50  93 SE5       30.22S

$$

UTZ012>022-026-027-221100-

SOUTHERN UTAH

CITY           SKY/WX    TMP DP  RH WIND       PRES   REMARKS
BRYCE CANYON   PTCLDY    46  44  93 CALM      30.34S
CEDAR CITY     PTCLDY    52  51  97 SE5       30.23R
MILFORD        MOCLDY    56  52  86 SE13      30.18F
MOAB/CYNLANDS  CLEAR     61  56  83 CALM      30.15S
PRICE          CLOUDY    56  53  90 CALM      30.24S
ST GEORGE      CLOUDY    68  55  64 E3        30.08S
KANAB            N/A     55  55 100 CALM      30.22S

$$

REGIONAL REPORTS     COLORADO/ARIZONA

CITY           SKY/WX    TMP DP  RH WIND       PRES   REMARKS
CRAIG, CO      MOCLDY    55  50  83 CALM      30.26R
GRAND JUNCTION MOCLDY    62  57  83 SE13G22   30.18S
RIFLE          LGT RAIN  59  57  93 SE3       30.25S
MONTROSE       LGT RAIN  60  57  89 CALM      30.28F
CORTEZ         CLOUDY    60  58  92 NE6       30.27S
PAGE, AZ       CLEAR     68  58  70 CALM      30.13S
GRAND CANYON   CLEAR     42  40  92 CALM      30.30S
KINGMAN        CLEAR     61  42  49 S5        30.08S
FLAGSTAFF      CLEAR     47  44  90 CALM      30.32S

$$

REGIONAL REPORTS    NEVADA/IDAHO/WYOMING

CITY           SKY/WX    TMP DP  RH WIND       PRES   REMARKS
LAS VEGAS, NV  CLEAR     78  46  32 SW7       29.94S
ELY            MOCLDY    45  44  97 S8        30.24F
ELKO           CLEAR     45  41  86 SE3       30.16S
POCATELLO, ID  CLOUDY    55  55 100 CALM      30.15R
BURLEY         CLOUDY    53  51  93 CALM      30.10S
EVANSTON, WY   LGT RAIN  46  45  96 E5        30.28S FOG
ROCK SPRINGS   PTCLDY    48  47  96 SW3       30.26S

$$


USA.gov is the U.S. government's official web portal to all federal, state and local government web resources and services.